Flag for U.S.A. Weather past 2 weeks in Coeur d'Alene, Idaho, U.S.A.

Now
52 °F

Overcast.


Feels Like: 49 °F
Forecast: 48 / 57 °F
Wind: 9 mph from South

Location: Coeur d'Alene Weather Reporting System

Current Time: Oct 22, 2014 at 11:42:27 PM

Latest Report: Oct 22, 2014 at 11:15 PM


Visibility: 10 mi

Pressure: 29.79 "Hg

Humidity: 82%

Dew point: 46 °F

Location of Coeur d'AleneLocation

Historic Weather in Coeur d'Alene — Graph

°F

Coeur d'Alene temperature yesterday

Maximum temperature yesterday: 57 °F (at 3:55 PM)
Minimum temperature yesterday: 46 °F (at 11:35 PM)
Average temperature yesterday: 51 °F

Past Weeks' High & Low Weather Summary

 TemperatureHumidityPressure
High72 °F (Oct 9, 1:55 PM)100% (Oct 18, 11:35 PM)30.20 "Hg (Oct 18, 11:35 PM)
Low36 °F (Oct 22, 6:35 AM)10% (Oct 11, 10:35 AM)29.56 "Hg (Oct 15, 1:55 AM)
Average53 °F67%29.93 "Hg
* Reported Oct 7 10:15 PM — Oct 22 10:35 PM, Coeur d'Alene, Weather by CustomWeather, © 2014

Note: Actual official high and low records may vary slightly from our data, if they occured in-between our weather recording intervals... More about our weather records

Advertising

Coeur d'Alene weather history for previous 24 hours

 ConditionsComfort  
Time TempWeatherWind HumidityBarometerVisibility
10:35 PM
Oct 22
52 °FOvercast.6 mph82%29.79 "Hg10 mi
10:15 PM50 °FOvercast.6 mph88%29.80 "Hg10 mi
9:55 PM52 °FOvercast.3 mph82%29.80 "Hg10 mi
9:35 PM52 °FOvercast.8 mph82%29.80 "Hg10 mi
9:15 PM50 °FMostly cloudy.5 mph88%29.80 "Hg10 mi
8:55 PM50 °FOvercast.No wind88%29.81 "Hg10 mi
8:35 PM50 °FOvercast.5 mph88%29.80 "Hg10 mi
8:15 PM50 °FOvercast.8 mph88%29.79 "Hg10 mi
7:55 PM52 °FOvercast.8 mph77%29.79 "Hg10 mi
7:35 PM52 °FPassing clouds.7 mph77%29.79 "Hg10 mi
7:15 PM52 °FPassing clouds.8 mph77%29.79 "Hg10 mi
6:55 PM52 °FOvercast.7 mph77%29.80 "Hg10 mi
6:35 PM52 °FOvercast.8 mph72%29.80 "Hg10 mi
6:15 PM54 °FOvercast.7 mph67%29.81 "Hg10 mi
5:55 PM54 °FOvercast.7 mph67%29.80 "Hg10 mi
5:35 PM54 °FOvercast.7 mph67%29.80 "Hg10 mi
5:15 PM57 °FOvercast.No wind55%29.81 "Hg10 mi
4:55 PM57 °FOvercast.No wind59%29.81 "Hg10 mi
4:35 PM57 °FMostly cloudy.No wind59%29.83 "Hg10 mi
4:15 PM57 °FOvercast.5 mph55%29.84 "Hg10 mi
3:55 PM57 °FOvercast.7 mph51%29.84 "Hg10 mi
3:35 PM57 °FOvercast.8 mph55%29.84 "Hg10 mi
3:15 PM57 °FOvercast.8 mph55%29.85 "Hg10 mi
2:55 PM57 °FOvercast.5 mph55%29.85 "Hg10 mi
2:35 PM57 °FOvercast.8 mph59%29.85 "Hg10 mi
2:15 PM55 °FMostly cloudy.15 mph59%29.86 "Hg10 mi
1:55 PM57 °FMostly cloudy.14 mph55%29.87 "Hg10 mi
1:35 PM57 °FMostly cloudy.14 mph55%29.87 "Hg10 mi
1:15 PM57 °FMostly cloudy.9 mph55%29.88 "Hg10 mi
12:55 PM57 °FMostly cloudy.10 mph51%29.89 "Hg10 mi
12:35 PM55 °FMore clouds than sun.6 mph47%29.90 "Hg10 mi
12:15 PM55 °FOvercast.3 mph55%29.90 "Hg10 mi
11:55 AM55 °FMostly cloudy.7 mph55%29.91 "Hg10 mi
11:35 AM52 °FOvercast.5 mph72%29.92 "Hg10 mi
11:15 AM52 °FOvercast.5 mph72%29.93 "Hg10 mi
10:55 AM50 °FOvercast.6 mph76%29.93 "Hg10 mi
10:35 AM50 °FOvercast.6 mph76%29.92 "Hg10 mi
10:15 AM48 °FOvercast.3 mph82%29.93 "Hg10 mi
9:55 AM48 °FOvercast.5 mph76%29.94 "Hg10 mi
9:35 AM46 °FOvercast.5 mph76%29.94 "Hg10 mi
9:15 AM48 °FOvercast.3 mph82%29.94 "Hg10 mi
8:55 AM45 °FOvercast.No wind93%29.94 "Hg10 mi
8:35 AM45 °FOvercast.3 mph81%29.94 "Hg10 mi
8:15 AM41 °FPassing clouds.5 mph87%29.94 "Hg10 mi
7:15 AM36 °FPassing clouds.5 mph93%29.94 "Hg10 mi
6:55 AM36 °FPassing clouds.5 mph93%29.94 "Hg10 mi
6:35 AM36 °FClear.3 mph93%29.94 "Hg10 mi
6:15 AM37 °FClear.3 mph93%29.94 "Hg10 mi
5:55 AM37 °FClear.3 mph87%29.94 "Hg10 mi
5:35 AM37 °FClear.3 mph93%29.95 "Hg10 mi
4:55 AM39 °FClear.No wind87%29.96 "Hg10 mi
4:35 AM39 °FClear.5 mph87%29.96 "Hg10 mi
4:15 AM39 °FClear.5 mph87%29.96 "Hg10 mi
3:55 AM37 °FPassing clouds.5 mph87%29.97 "Hg10 mi
3:35 AM41 °FPassing clouds.No wind87%29.97 "Hg10 mi
3:15 AM41 °FPassing clouds.No wind87%29.97 "Hg10 mi
2:55 AM45 °FPassing clouds.No wind81%29.98 "Hg10 mi
2:35 AM45 °FPassing clouds.No wind87%29.98 "Hg10 mi
2:15 AM46 °FOvercast.7 mph82%29.98 "Hg10 mi
1:55 AM45 °FPassing clouds.6 mph87%29.99 "Hg10 mi
1:35 AM46 °FPassing clouds.5 mph82%29.98 "Hg10 mi
1:15 AM45 °FPassing clouds.5 mph81%29.98 "Hg10 mi
12:55 AM45 °FClear.5 mph81%29.98 "Hg10 mi
12:35 AM46 °FClear.7 mph82%29.98 "Hg10 mi
12:15 AM46 °FPassing clouds.7 mph82%29.98 "Hg10 mi
11:55 PM
Oct 21
46 °FPassing clouds.5 mph76%29.98 "Hg10 mi
11:35 PM46 °FClear.7 mph76%29.98 "Hg10 mi
11:15 PM48 °FClear.6 mph76%29.98 "Hg10 mi
Weather by CustomWeather, © 2014

See weather overviewHow to use our weather pages